| time (UTC) | temp F | wind direction | speed MPH | gust MPH | rain 1hr in | rain 24hr in | rain mn in | humidity % | barometer mb |
| 20260504041043 | 54 | 245 | 3.0 | 5.0 | 0.00 | 0.00 | 0.00 | 47 | 1001.7 |
| 20260504040542 | 54 | 256 | 3.0 | 5.0 | 0.00 | 0.00 | 0.00 | 47 | 1001.8 |
| 20260504040041 | 54 | 238 | 3.0 | 5.0 | 0.00 | 0.00 | 0.00 | 47 | 1002.0 |
| 20260504035540 | 54 | 243 | 2.0 | 5.0 | 0.00 | 0.00 | 0.00 | 47 | 1002.1 |
| 20260504035040 | 55 | 252 | 2.0 | 4.0 | 0.00 | 0.00 | 0.00 | 46 | 1002.2 |
| 20260504034539 | 55 | 246 | 2.0 | 4.0 | 0.00 | 0.00 | 0.00 | 45 | 1002.2 |
| 20260504034038 | 56 | 239 | 2.0 | 5.0 | 0.00 | 0.00 | 0.00 | 44 | 1002.4 |
| 20260504033537 | 56 | 267 | 2.0 | 5.0 | 0.00 | 0.00 | 0.00 | 43 | 1002.4 |
| 20260504033036 | 56 | 240 | 2.0 | 4.0 | 0.00 | 0.00 | 0.00 | 43 | 1002.5 |
| 20260504032536 | 56 | 233 | 2.0 | 4.0 | 0.00 | 0.00 | 0.00 | 42 | 1002.7 |
| 20260504032036 | 57 | 246 | 1.0 | 3.0 | 0.00 | 0.00 | 0.00 | 42 | 1002.8 |
| 20260504031535 | 57 | 239 | 1.0 | 3.0 | 0.00 | 0.00 | 0.00 | 41 | 1002.9 |
| 20260504031033 | 57 | 245 | 2.0 | 3.0 | 0.00 | 0.00 | 0.00 | 41 | 1003.0 |
| 20260504030533 | 57 | 259 | 1.0 | 3.0 | 0.00 | 0.00 | 0.00 | 41 | 1003.1 |
| 20260504030033 | 57 | 245 | 2.0 | 3.0 | 0.00 | 0.00 | 0.00 | 41 | 1003.2 |
| 20260504025533 | 57 | 240 | 1.0 | 3.0 | 0.00 | 0.00 | 0.00 | 40 | 1003.1 |
| 20260504025034 | 58 | 252 | 0.0 | 3.0 | 0.00 | 0.00 | 0.00 | 40 | 1003.1 |
| 20260504024535 | 58 | 253 | 1.0 | 3.0 | 0.00 | 0.00 | 0.00 | 40 | 1003.2 |
| 20260504024033 | 58 | 258 | 0.0 | 3.0 | 0.00 | 0.00 | 0.00 | 40 | 1003.2 |
| 20260504023531 | 58 | 275 | 0.0 | 3.0 | 0.00 | 0.00 | 0.00 | 39 | 1003.2 |
| 20260504023034 | 58 | 254 | 0.0 | 2.0 | 0.00 | 0.00 | 0.00 | 39 | 1003.2 |
| 20260504022533 | 59 | 249 | 1.0 | 2.0 | 0.00 | 0.00 | 0.00 | 39 | 1003.3 |
| 20260504022031 | 59 | 266 | 0.0 | 2.0 | 0.00 | 0.00 | 0.00 | 38 | 1003.2 |
| 20260504021530 | 59 | 262 | 0.0 | 1.0 | 0.00 | 0.00 | 0.00 | 38 | 1003.3 |
| 20260504021030 | 59 | 263 | 0.0 | 1.0 | 0.00 | 0.00 | 0.00 | 38 | 1003.3 |
| 20260504020529 | 59 | 261 | 0.0 | 2.0 | 0.00 | 0.00 | 0.00 | 38 | 1003.3 |
| 20260504020028 | 60 | 269 | 0.0 | 2.0 | 0.00 | 0.00 | 0.00 | 38 | 1003.3 |
| 20260504015529 | 60 | 277 | 0.0 | 2.0 | 0.00 | 0.00 | 0.00 | 37 | 1003.4 |
| 20260504015029 | 60 | 257 | 0.0 | 2.0 | 0.00 | 0.00 | 0.00 | 37 | 1003.4 |
| 20260504014537 | 60 | 252 | 1.0 | 2.0 | 0.00 | 0.00 | 0.00 | 37 | 1003.4 |
| 20260504014028 | 61 | 262 | 1.0 | 2.0 | 0.00 | 0.00 | 0.00 | 38 | 1003.5 |
| 20260504013526 | 61 | 278 | 1.0 | 2.0 | 0.00 | 0.00 | 0.00 | 40 | 1003.6 |
| 20260504013035 | 61 | 288 | 1.0 | 3.0 | 0.00 | 0.00 | 0.00 | 38 | 1003.6 |
| 20260504012526 | 62 | 280 | 1.0 | 4.0 | 0.00 | 0.00 | 0.00 | 43 | 1003.7 |
| 20260504012026 | 62 | 283 | 3.0 | 5.0 | 0.00 | 0.00 | 0.00 | 39 | 1003.6 |
| 20260504011526 | 63 | 283 | 3.0 | 7.0 | 0.00 | 0.00 | 0.00 | 38 | 1003.6 |
| 20260504011024 | 63 | 281 | 4.0 | 8.0 | 0.00 | 0.00 | 0.00 | 40 | 1003.7 |
| 20260504010524 | 64 | 290 | 6.0 | 10.0 | 0.00 | 0.00 | 0.00 | 35 | 1003.8 |
| 20260504010023 | 64 | 288 | 6.0 | 12.0 | 0.00 | 0.00 | 0.00 | 34 | 1003.8 |
| 20260504005523 | 65 | 290 | 8.0 | 12.0 | 0.00 | 0.00 | 0.00 | 32 | 1003.8 |
| 20260504005023 | 65 | 285 | 9.0 | 12.0 | 0.00 | 0.00 | 0.00 | 33 | 1003.9 |
| 20260504004527 | 66 | 271 | 8.0 | 14.0 | 0.00 | 0.00 | 0.00 | 33 | 1003.9 |
| 20260504004022 | 66 | 290 | 8.0 | 14.0 | 0.00 | 0.00 | 0.00 | 33 | 1003.9 |
| 20260504003522 | 66 | 284 | 10.0 | 14.0 | 0.00 | 0.00 | 0.00 | 31 | 1003.9 |
| 20260504003021 | 66 | 283 | 7.0 | 12.0 | 0.00 | 0.00 | 0.00 | 30 | 1004.0 |
| 20260504002523 | 66 | 287 | 8.0 | 13.0 | 0.00 | 0.00 | 0.00 | 29 | 1004.0 |
| 20260504002021 | 66 | 248 | 9.0 | 17.0 | 0.00 | 0.00 | 0.00 | 28 | 1004.1 |
| 20260504001521 | 66 | 287 | 8.0 | 16.0 | 0.00 | 0.00 | 0.00 | 30 | 1004.0 |
| 20260504001020 | 67 | 283 | 10.0 | 16.0 | 0.00 | 0.00 | 0.00 | 27 | 1004.0 |
| 20260504000519 | 67 | 328 | 7.0 | 16.0 | 0.00 | 0.00 | 0.00 | 28 | 1004.0 |
| 20260504000020 | 67 | 285 | 6.0 | 14.0 | 0.00 | 0.00 | 0.00 | 28 | 1004.1 |
| 20260503235521 | 67 | 294 | 6.0 | 14.0 | 0.00 | 0.00 | 0.00 | 30 | 1004.2 |
| 20260503235019 | 67 | 313 | 6.0 | 16.0 | 0.00 | 0.00 | 0.00 | 30 | 1004.3 |
| 20260503234521 | 67 | 281 | 10.0 | 17.0 | 0.00 | 0.00 | 0.00 | 30 | 1004.1 |
| 20260503234022 | 67 | 256 | 12.0 | 17.0 | 0.00 | 0.00 | 0.00 | 28 | 1004.2 |
| 20260503233519 | 67 | 274 | 7.0 | 14.0 | 0.00 | 0.00 | 0.00 | 28 | 1004.2 |
| 20260503233021 | 68 | 256 | 6.0 | 14.0 | 0.00 | 0.00 | 0.00 | 28 | 1004.2 |
| 20260503232519 | 68 | 266 | 7.0 | 14.0 | 0.00 | 0.00 | 0.00 | 27 | 1004.3 |
| 20260503232019 | 68 | 281 | 5.0 | 15.0 | 0.00 | 0.00 | 0.00 | 26 | 1004.5 |
| 20260503231519 | 68 | 311 | 5.0 | 15.0 | 0.00 | 0.00 | 0.00 | 26 | 1004.5 |
| 20260503231015 | 68 | 274 | 5.0 | 12.0 | 0.00 | 0.00 | 0.00 | 25 | 1004.4 |
| 20260503230518 | 68 | 351 | 5.0 | 12.0 | 0.00 | 0.00 | 0.00 | 25 | 1004.5 |
| 20260503230017 | 68 | 295 | 6.0 | 15.0 | 0.00 | 0.00 | 0.00 | 26 | 1004.3 |
| 20260503225513 | 68 | 323 | 5.0 | 15.0 | 0.00 | 0.00 | 0.00 | 26 | 1004.5 |
| 20260503225012 | 68 | 277 | 3.0 | 18.0 | 0.00 | 0.00 | 0.00 | 26 | 1004.6 |
| 20260503224511 | 68 | 267 | 8.0 | 18.0 | 0.00 | 0.00 | 0.00 | 26 | 1004.6 |
| 20260503224013 | 68 | 229 | 4.0 | 11.0 | 0.00 | 0.00 | 0.00 | 25 | 1004.8 |
| 20260503223510 | 68 | 315 | 4.0 | 10.0 | 0.00 | 0.00 | 0.00 | 25 | 1004.8 |
| 20260503223009 | 68 | 20 | 4.0 | 16.0 | 0.00 | 0.00 | 0.00 | 24 | 1004.9 |
| 20260503222510 | 68 | 330 | 5.0 | 13.0 | 0.00 | 0.00 | 0.00 | 24 | 1004.9 |
| 20260503222110 | 68 | 312 | 6.0 | 13.0 | 0.00 | 0.00 | 0.00 | 26 | 1004.8 |
| 20260503221509 | 68 | 266 | 5.0 | 15.0 | 0.00 | 0.00 | 0.00 | 27 | 1004.9 |
| 20260503221009 | 68 | 319 | 6.0 | 17.0 | 0.00 | 0.00 | 0.00 | 26 | 1005.0 |
| 20260503220509 | 68 | 321 | 7.0 | 17.0 | 0.00 | 0.00 | 0.00 | 27 | 1005.0 |
| 20260503220007 | 68 | 297 | 3.0 | 10.0 | 0.00 | 0.00 | 0.00 | 26 | 1005.0 |
| 20260503215506 | 68 | 290 | 7.0 | 11.0 | 0.00 | 0.00 | 0.00 | 25 | 1005.0 |
| 20260503215006 | 68 | 354 | 5.0 | 13.0 | 0.00 | 0.00 | 0.00 | 25 | 1005.1 |
| 20260503214505 | 68 | 324 | 5.0 | 14.0 | 0.00 | 0.00 | 0.00 | 25 | 1005.2 |
| 20260503214004 | 68 | 318 | 4.0 | 14.0 | 0.00 | 0.00 | 0.00 | 27 | 1005.1 |
| 20260503213503 | 68 | 293 | 8.0 | 14.0 | 0.00 | 0.00 | 0.00 | 27 | 1005.1 |
| 20260503213007 | 68 | 314 | 7.0 | 13.0 | 0.00 | 0.00 | 0.00 | 27 | 1005.3 |
| 20260503212503 | 69 | 317 | 4.0 | 8.0 | 0.00 | 0.00 | 0.00 | 26 | 1005.4 |
| 20260503212002 | 69 | 328 | 1.0 | 11.0 | 0.00 | 0.00 | 0.00 | 26 | 1005.4 |
| 20260503211500 | 68 | 267 | 4.0 | 11.0 | 0.00 | 0.00 | 0.00 | 25 | 1005.5 |
| 20260503211001 | 68 | 324 | 5.0 | 10.0 | 0.00 | 0.00 | 0.00 | 27 | 1005.6 |
| 20260503210600 | 68 | 328 | 5.0 | 19.0 | 0.00 | 0.00 | 0.00 | 27 | 1005.6 |
| 20260503210502 | 68 | 295 | 4.0 | 19.0 | 0.00 | 0.00 | 0.00 | 27 | 1005.6 |
| 20260503210100 | 68 | 356 | 7.0 | 19.0 | 0.00 | 0.00 | 0.00 | 27 | 1005.7 |
| 20260503205600 | 68 | 304 | 5.0 | 15.0 | 0.00 | 0.00 | 0.00 | 28 | 1005.7 |
| 20260503205059 | 68 | 340 | 4.0 | 12.0 | 0.00 | 0.00 | 0.00 | 28 | 1005.8 |
| 20260503204559 | 68 | 314 | 4.0 | 10.0 | 0.00 | 0.00 | 0.00 | 28 | 1005.8 |
| 20260503204059 | 67 | 326 | 5.0 | 14.0 | 0.00 | 0.00 | 0.00 | 27 | 1005.8 |
| 20260503203558 | 67 | 341 | 5.0 | 14.0 | 0.00 | 0.00 | 0.00 | 27 | 1006.0 |
| 20260503203114 | 68 | 296 | 5.0 | 15.0 | 0.00 | 0.00 | 0.00 | 27 | 1006.0 |
| 20260503202558 | 67 | 323 | 7.0 | 15.0 | 0.00 | 0.00 | 0.00 | 28 | 1006.1 |
| 20260503202058 | 67 | 319 | 6.0 | 12.0 | 0.00 | 0.00 | 0.00 | 28 | 1006.1 |
| 20260503201557 | 66 | 355 | 5.0 | 15.0 | 0.00 | 0.00 | 0.00 | 27 | 1006.2 |
| 20260503201058 | 67 | 349 | 5.0 | 15.0 | 0.00 | 0.00 | 0.00 | 25 | 1006.3 |
| 20260503200556 | 67 | 290 | 5.0 | 9.0 | 0.00 | 0.00 | 0.00 | 27 | 1006.2 |
| 20260503200056 | 67 | 20 | 4.0 | 9.0 | 0.00 | 0.00 | 0.00 | 25 | 1006.2 |
| 20260503195556 | 67 | 30 | 5.0 | 10.0 | 0.00 | 0.00 | 0.00 | 26 | 1006.3 |
| 20260503195054 | 67 | 55 | 3.0 | 12.0 | 0.00 | 0.00 | 0.00 | 28 | 1006.4 |
| 20260503194553 | 67 | 284 | 5.0 | 12.0 | 0.00 | 0.00 | 0.00 | 28 | 1006.4 |
| 20260503194052 | 66 | 311 | 3.0 | 11.0 | 0.00 | 0.00 | 0.00 | 30 | 1006.5 |
| 20260503193552 | 66 | 44 | 4.0 | 11.0 | 0.00 | 0.00 | 0.00 | 28 | 1006.6 |
| 20260503193054 | 66 | 4 | 4.0 | 11.0 | 0.00 | 0.00 | 0.00 | 27 | 1006.6 |
| 20260503192550 | 65 | 354 | 5.0 | 11.0 | 0.00 | 0.00 | 0.00 | 29 | 1006.7 |
| 20260503192050 | 65 | 1 | 5.0 | 16.0 | 0.00 | 0.00 | 0.00 | 28 | 1006.7 |
| 20260503191552 | 65 | 40 | 6.0 | 16.0 | 0.00 | 0.00 | 0.00 | 28 | 1006.8 |
| 20260503191048 | 65 | 328 | 5.0 | 13.0 | 0.00 | 0.00 | 0.00 | 28 | 1007.0 |
| 20260503190548 | 65 | 270 | 6.0 | 13.0 | 0.00 | 0.00 | 0.00 | 29 | 1007.1 |
| 20260503185548 | 65 | 34 | 12.0 | 17.0 | 0.00 | 0.00 | 0.00 | 30 | 1007.1 |
| 20260503185048 | 65 | 4 | 6.0 | 14.0 | 0.00 | 0.00 | 0.00 | 30 | 1007.1 |
| 20260503184545 | 65 | 347 | 7.0 | 14.0 | 0.00 | 0.00 | 0.00 | 32 | 1007.2 |
| 20260503184048 | 64 | 301 | 5.0 | 16.0 | 0.00 | 0.00 | 0.00 | 32 | 1007.3 |
| 20260503183545 | 64 | 44 | 9.0 | 16.0 | 0.00 | 0.00 | 0.00 | 33 | 1007.3 |
| 20260503183045 | 64 | 32 | 4.0 | 11.0 | 0.00 | 0.00 | 0.00 | 33 | 1007.3 |
| 20260503182544 | 64 | 18 | 5.0 | 14.0 | 0.00 | 0.00 | 0.00 | 33 | 1007.3 |
| 20260503182044 | 64 | 85 | 7.0 | 14.0 | 0.00 | 0.00 | 0.00 | 35 | 1007.3 |
| 20260503181551 | 64 | 34 | 6.0 | 13.0 | 0.00 | 0.00 | 0.00 | 34 | 1007.6 |
| 20260503181044 | 64 | 338 | 5.0 | 15.0 | 0.00 | 0.00 | 0.00 | 34 | 1007.4 |
| 20260503180543 | 64 | 4 | 4.0 | 15.0 | 0.00 | 0.00 | 0.00 | 34 | 1007.5 |
| 20260503180049 | 64 | 311 | 1.0 | 15.0 | 0.00 | 0.00 | 0.00 | 37 | 1007.4 |
| 20260503175542 | 64 | 19 | 8.0 | 15.0 | 0.00 | 0.00 | 0.00 | 34 | 1007.6 |
| 20260503175041 | 64 | 68 | 6.0 | 13.0 | 0.00 | 0.00 | 0.00 | 32 | 1007.6 |
| 20260503174542 | 64 | 34 | 6.0 | 12.0 | 0.00 | 0.00 | 0.00 | 34 | 1007.6 |
| 20260503174042 | 64 | 354 | 7.0 | 13.0 | 0.00 | 0.00 | 0.00 | 34 | 1007.8 |
| 20260503173541 | 64 | 19 | 5.0 | 13.0 | 0.00 | 0.00 | 0.00 | 34 | 1007.7 |
| 20260503173040 | 63 | 32 | 4.0 | 11.0 | 0.00 | 0.00 | 0.00 | 34 | 1007.7 |
| 20260503172539 | 63 | 71 | 5.0 | 11.0 | 0.00 | 0.00 | 0.00 | 34 | 1007.7 |
| 20260503172039 | 63 | 27 | 6.0 | 10.0 | 0.00 | 0.00 | 0.00 | 33 | 1007.7 |
| 20260503171538 | 63 | 37 | 5.0 | 10.0 | 0.00 | 0.00 | 0.00 | 35 | 1007.7 |
| 20260503171038 | 63 | 13 | 6.0 | 13.0 | 0.00 | 0.00 | 0.00 | 35 | 1007.7 |
| 20260503170538 | 63 | 22 | 8.0 | 13.0 | 0.00 | 0.00 | 0.00 | 35 | 1007.8 |
| 20260503150520 | 60 | 4 | 4.0 | 17.0 | 0.00 | 0.00 | 0.00 | 50 | 1007.5 |
| 20260503131006 | 53 | 41 | 5.0 | 13.0 | 0.00 | 0.00 | 0.00 | 59 | 1007.0 |
| 20260503130508 | 53 | 10 | 4.0 | 13.0 | 0.00 | 0.00 | 0.00 | 60 | 1006.9 |
| 20260503110556 | 48 | 317 | 2.0 | 4.0 | 0.00 | 0.00 | 0.00 | 63 | 1004.9 |
| 20260503100105 | 49 | 278 | 3.0 | 5.0 | 0.00 | 0.00 | 0.00 | 62 | 1004.8 |
| 20260503081536 | 53 | 239 | 5.0 | 10.0 | 0.00 | 0.00 | 0.00 | 54 | 1005.2 |
| 20260503081029 | 54 | 236 | 5.0 | 11.0 | 0.00 | 0.00 | 0.00 | 54 | 1005.3 |
| 20260503080527 | 54 | 228 | 6.0 | 11.0 | 0.00 | 0.00 | 0.00 | 54 | 1005.4 |
| 20260503072521 | 55 | 242 | 5.0 | 9.0 | 0.00 | 0.00 | 0.00 | 52 | 1005.6 |
| 20260503072019 | 55 | 250 | 5.0 | 9.0 | 0.00 | 0.00 | 0.00 | 52 | 1005.5 |
| 20260503071519 | 56 | 258 | 5.0 | 9.0 | 0.00 | 0.00 | 0.00 | 52 | 1005.6 |
| 20260503071016 | 56 | 232 | 6.0 | 9.0 | 0.00 | 0.00 | 0.00 | 51 | 1005.6 |
| 20260503070517 | 56 | 257 | 5.0 | 9.0 | 0.00 | 0.00 | 0.00 | 51 | 1005.6 |
| 20260503055005 | 59 | 256 | 7.0 | 14.0 | 0.00 | 0.00 | 0.00 | 49 | 1006.2 |
| 20260503054504 | 59 | 266 | 8.0 | 19.0 | 0.00 | 0.00 | 0.00 | 48 | 1006.4 |
| 20260503054004 | 59 | 257 | 9.0 | 19.0 | 0.00 | 0.00 | 0.00 | 48 | 1006.4 |
| 20260503053503 | 59 | 264 | 12.0 | 22.0 | 0.00 | 0.00 | 0.00 | 47 | 1006.5 |
| 20260503053005 | 58 | 263 | 13.0 | 22.0 | 0.00 | 0.00 | 0.00 | 49 | 1006.5 |
| 20260503052600 | 58 | 249 | 6.0 | 13.0 | 0.00 | 0.00 | 0.00 | 52 | 1006.8 |
| 20260503052100 | 58 | 264 | 6.0 | 20.0 | 0.00 | 0.00 | 0.00 | 54 | 1006.8 |
| 20260503051559 | 58 | 269 | 10.0 | 21.0 | 0.00 | 0.00 | 0.00 | 53 | 1007.0 |
| 20260503051059 | 58 | 288 | 12.0 | 21.0 | 0.00 | 0.00 | 0.00 | 54 | 1007.0 |
| 20260503050558 | 58 | 259 | 11.0 | 21.0 | 0.00 | 0.00 | 0.00 | 53 | 1006.9 |
| 20260503050056 | 58 | 278 | 8.0 | 15.0 | 0.00 | 0.00 | 0.00 | 53 | 1007.1 |
| 20260503045558 | 58 | 274 | 9.0 | 16.0 | 0.00 | 0.00 | 0.00 | 53 | 1007.0 |
| 20260503045055 | 57 | 273 | 9.0 | 16.0 | 0.00 | 0.00 | 0.00 | 52 | 1007.2 |
| 20260503044557 | 57 | 263 | 8.0 | 11.0 | 0.00 | 0.00 | 0.00 | 52 | 1007.2 |
| 20260503044055 | 56 | 252 | 6.0 | 9.0 | 0.00 | 0.00 | 0.00 | 50 | 1007.3 |
| 20260503043553 | 56 | 262 | 5.0 | 9.0 | 0.00 | 0.00 | 0.00 | 49 | 1007.3 |
| 20260503043053 | 56 | 237 | 5.0 | 11.0 | 0.00 | 0.00 | 0.00 | 48 | 1007.4 |
| 20260503042553 | 55 | 253 | 7.0 | 11.0 | 0.00 | 0.00 | 0.00 | 48 | 1007.4 |
| 20260503042051 | 55 | 256 | 6.0 | 11.0 | 0.00 | 0.00 | 0.00 | 48 | 1007.5 |
| 20260503041551 | 55 | 249 | 7.0 | 10.0 | 0.00 | 0.00 | 0.00 | 49 | 1007.7 |